IPRIOL5 Weather Reports


Display with metric or nautical units.
time (UTC)temp
F
wind
direction
speed
MPH
gust
MPH
rain 1hr
in
rain 24hr
in
rain mn
in
humidity
%
barometer
mb
20260906083006 88 179 0.0 0.0 0.00 0.00 0.00 44 1019.7
20260906081513 88 179 0.0 0.0 0.00 0.00 0.00 45 1019.6
20260906080013 87 179 0.0 0.0 0.00 0.00 0.00 45 1019.5
20260906074517 86 179 0.0 0.0 0.00 0.00 0.00 47 1019.3
20260906073003 85 179 0.0 0.0 0.00 0.00 0.00 49 1019.1
20260906071509 85 179 0.0 0.0 0.00 0.00 0.00 51 1019.1
20260906070017 84 179 0.0 0.0 0.00 0.00 0.00 51 1018.9
20260906064516 83 179 0.0 0.0 0.00 0.00 0.00 51 1018.8
20260906063024 83 179 0.0 0.0 0.00 0.00 0.00 52 1018.8
20260906061506 82 179 0.0 0.0 0.00 0.00 0.00 52 1018.7
20260906060011 82 179 0.0 0.0 0.00 0.00 0.00 52 1018.5
20260906054515 81 179 0.0 0.0 0.00 0.00 0.00 52 1018.4
20260906053026 81 179 0.0 0.0 0.00 0.00 0.00 52 1018.4
20260906051523 81 179 0.0 0.0 0.00 0.00 0.00 52 1018.4
20260906050009 81 179 0.0 0.0 0.00 0.00 0.00 52 1018.3
20260906044512 81 179 0.0 0.0 0.00 0.00 0.00 53 1018.3
20260906043020 82 179 0.0 0.0 0.00 0.00 0.00 54 1018.1
20260906041523 82 179 0.0 0.0 0.00 0.00 0.00 55 1018.0
20260906040032 82 179 0.0 0.0 0.00 0.00 0.00 55 1017.9
20260906034510 82 179 0.0 0.0 0.00 0.00 0.00 55 1017.8
20260906033010 83 179 0.0 0.0 0.00 0.00 0.00 55 1017.8
20260906031505 83 179 0.0 0.0 0.00 0.00 0.00 55 1017.9
20260906030009 83 179 0.0 0.0 0.00 0.00 0.00 56 1018.0
20260906024519 83 179 0.0 0.0 0.00 0.00 0.00 56 1018.0
20260906023019 84 179 0.0 0.0 0.00 0.00 0.00 56 1018.1
20260906021517 84 179 0.0 0.0 0.00 0.00 0.00 57 1018.1
20260906020004 84 179 0.0 0.0 0.00 0.00 0.00 57 1018.1
20260906014509 84 179 0.0 0.0 0.00 0.00 0.00 57 1018.2
20260906013010 85 179 0.0 0.0 0.00 0.00 0.00 58 1018.3
20260906011510 85 179 0.0 0.0 0.00 0.00 0.00 58 1018.4
20260906010020 85 179 0.0 0.0 0.00 0.00 0.00 58 1018.5
20260906004504 86 179 0.0 0.0 0.00 0.00 0.00 57 1018.5
20260906003005 86 179 0.0 0.0 0.00 0.00 0.00 57 1018.5
20260906001512 86 179 0.0 0.0 0.00 0.00 0.00 56 1018.5
20260906000014 86 179 0.0 0.0 0.00 0.00 0.00 55 1018.6
20260905234519 86 179 0.0 0.0 0.00 0.00 0.00 54 1018.8
20260905233004 86 179 0.0 0.0 0.00 0.00 0.00 53 1018.8
20260905231506 86 179 0.0 0.0 0.00 0.00 0.00 51 1018.9
20260905230009 87 179 0.0 0.0 0.00 0.00 0.00 50 1018.9
20260905224513 87 179 0.0 0.0 0.00 0.00 0.00 49 1019.0
20260905223023 87 179 0.0 0.0 0.00 0.00 0.00 47 1018.9
20260905221503 87 179 0.0 0.0 0.00 0.00 0.00 46 1018.9
20260905220007 87 179 0.0 0.0 0.00 0.00 0.00 44 1018.9
20260905214510 88 179 0.0 0.0 0.00 0.00 0.00 44 1018.8
20260905213014 88 179 0.0 0.0 0.00 0.00 0.00 44 1018.7
20260905211534 88 179 0.0 0.0 0.00 0.00 0.00 44 1018.7
20260905210029 89 179 0.0 0.0 0.00 0.00 0.00 43 1018.6
20260905204511 89 179 0.0 0.0 0.00 0.00 0.00 43 1018.6
20260905203013 89 179 0.0 0.0 0.00 0.00 0.00 42 1018.6
20260905201519 90 179 0.0 0.0 0.00 0.00 0.00 42 1018.6
20260905200030 90 179 0.0 0.0 0.00 0.00 0.00 42 1018.7
20260905194530 90 179 0.0 0.0 0.00 0.00 0.00 42 1018.8
20260905193007 91 179 0.0 0.0 0.00 0.00 0.00 42 1018.7
20260905191515 91 179 0.0 0.0 0.00 0.00 0.00 43 1018.7
20260905190023 92 179 0.0 0.0 0.00 0.00 0.00 43 1018.5
20260905184539 92 179 0.0 0.0 0.00 0.00 0.00 43 1018.3
20260905183032 92 179 0.0 0.0 0.00 0.00 0.00 42 1018.2
20260905181514 93 179 0.0 0.0 0.00 0.00 0.00 42 1018.1
20260905180004 94 179 0.0 0.0 0.00 0.00 0.00 42 1018.0
20260905174503 94 179 0.0 0.0 0.00 0.00 0.00 41 1018.0
20260905173009 95 179 0.0 0.0 0.00 0.00 0.00 40 1017.8
20260905171507 95 179 0.0 0.0 0.00 0.00 0.00 39 1017.6
20260905170011 96 179 0.0 0.0 0.00 0.00 0.00 38 1017.6
20260905164520 96 179 0.0 0.0 0.00 0.00 0.00 37 1017.6
20260905163004 97 179 0.0 0.0 0.00 0.00 0.00 37 1017.7
20260905161503 97 179 0.0 0.0 0.00 0.00 0.00 37 1017.6
20260905160010 98 179 0.0 0.0 0.00 0.00 0.00 36 1017.6
20260905154510 99 179 0.0 0.0 0.00 0.00 0.00 36 1017.7
20260905153025 100 179 0.0 0.0 0.00 0.00 0.00 35 1017.7
20260905151505 102 179 0.0 0.0 0.00 0.00 0.00 36 1017.7
20260905150003 103 179 0.0 0.0 0.00 0.00 0.00 36 1017.6
20260905144516 102 179 0.0 0.0 0.00 0.00 0.00 36 1017.6
20260905143023 100 179 0.0 0.0 0.00 0.00 0.00 39 1017.6
20260905141533 99 179 0.0 0.0 0.00 0.00 0.00 39 1017.7
20260905140006 99 179 0.0 0.0 0.00 0.00 0.00 39 1017.8
20260905134508 99 179 0.0 0.0 0.00 0.00 0.00 40 1017.9
20260905133014 98 179 0.0 0.0 0.00 0.00 0.00 40 1018.0
20260905131517 98 179 0.0 0.0 0.00 0.00 0.00 41 1018.1
20260905130024 98 179 0.0 0.0 0.00 0.00 0.00 43 1018.3
20260905124506 97 179 0.0 0.0 0.00 0.00 0.00 44 1018.6
20260905123019 97 179 0.0 0.0 0.00 0.00 0.00 44 1018.7
20260905121512 97 179 0.0 0.0 0.00 0.00 0.00 44 1018.9
20260905120003 96 179 0.0 0.0 0.00 0.00 0.00 44 1019.1
20260905114504 96 179 0.0 0.0 0.00 0.00 0.00 44 1019.2
20260905113005 96 179 0.0 0.0 0.00 0.00 0.00 44 1019.3
20260905111511 95 179 0.0 0.0 0.00 0.00 0.00 44 1019.2
20260905110012 95 179 0.0 0.0 0.00 0.00 0.00 45 1019.3
20260905104522 95 179 0.0 0.0 0.00 0.00 0.00 45 1019.3
20260905103004 95 179 0.0 0.0 0.00 0.00 0.00 47 1019.3
20260905101505 93 179 0.0 0.0 0.00 0.00 0.00 49 1019.4
20260905100018 93 179 0.0 0.0 0.00 0.00 0.00 49 1019.4
20260905094517 92 179 0.0 0.0 0.00 0.00 0.00 49 1019.5
20260905093021 91 179 0.0 0.0 0.00 0.00 0.00 49 1019.4
20260905091504 90 179 0.0 0.0 0.00 0.00 0.00 49 1019.5
20260905090004 90 179 0.0 0.0 0.00 0.00 0.00 48 1019.6
20260905084513 89 179 0.0 0.0 0.00 0.00 0.00 48 1019.6